| time (UTC) | temp F | wind direction | speed MPH | gust MPH | rain 1hr in | rain 24hr in | rain mn in | humidity % | barometer mb |
| 20260905222121 | 78 | 360 | 0.0 | 3.0 | 0.00 | 0.00 | 0.00 | 54 | 1009.1 |
| 20260905221121 | 78 | 12 | 0.0 | 3.0 | 0.00 | 0.00 | 0.00 | 52 | 1008.9 |
| 20260905220121 | 79 | 5 | 0.0 | 5.0 | 0.00 | 0.00 | 0.00 | 51 | 1008.9 |
| 20260905215121 | 79 | 12 | 2.0 | 7.0 | 0.00 | 0.00 | 0.00 | 50 | 1008.8 |
| 20260905213121 | 79 | 11 | 0.0 | 4.0 | 0.00 | 0.00 | 0.00 | 51 | 1008.8 |
| 20260905212122 | 79 | 12 | 1.0 | 3.0 | 0.00 | 0.00 | 0.00 | 52 | 1008.9 |
| 20260905211121 | 79 | 14 | 2.0 | 4.0 | 0.00 | 0.00 | 0.00 | 52 | 1008.9 |
| 20260905210121 | 79 | 298 | 0.0 | 2.0 | 0.00 | 0.00 | 0.00 | 53 | 1008.9 |
| 20260905205121 | 79 | 275 | 0.0 | 2.0 | 0.00 | 0.00 | 0.00 | 53 | 1008.8 |
| 20260905204121 | 79 | 249 | 0.0 | 1.0 | 0.00 | 0.00 | 0.00 | 52 | 1008.9 |
| 20260905203121 | 80 | 250 | 0.0 | 3.0 | 0.00 | 0.00 | 0.00 | 52 | 1008.9 |
| 20260905202122 | 81 | 244 | 0.0 | 3.0 | 0.00 | 0.00 | 0.00 | 50 | 1009.1 |
| 20260905201122 | 81 | 273 | 0.0 | 11.0 | 0.00 | 0.00 | 0.00 | 46 | 1009.0 |
| 20260905200121 | 82 | 247 | 0.0 | 12.0 | 0.00 | 0.00 | 0.00 | 48 | 1009.0 |
| 20260905195122 | 82 | 231 | 2.0 | 11.0 | 0.00 | 0.00 | 0.00 | 47 | 1009.0 |
| 20260905194121 | 81 | 281 | 0.0 | 7.0 | 0.00 | 0.00 | 0.00 | 49 | 1009.1 |
| 20260905192121 | 80 | 251 | 0.0 | 3.0 | 0.00 | 0.00 | 0.00 | 52 | 1009.3 |
| 20260905191121 | 81 | 254 | 1.0 | 4.0 | 0.00 | 0.00 | 0.00 | 50 | 1009.3 |
| 20260905190121 | 80 | 355 | 0.0 | 3.0 | 0.00 | 0.00 | 0.00 | 52 | 1009.2 |
| 20260905185121 | 80 | 280 | 0.0 | 0.0 | 0.00 | 0.00 | 0.00 | 54 | 1009.2 |
| 20260905184121 | 80 | 284 | 0.0 | 4.0 | 0.00 | 0.00 | 0.00 | 52 | 1009.3 |
| 20260905183121 | 80 | 286 | 1.0 | 8.0 | 0.00 | 0.00 | 0.00 | 50 | 1009.4 |
| 20260905182121 | 81 | 300 | 1.0 | 2.0 | 0.00 | 0.00 | 0.00 | 53 | 1009.4 |
| 20260905181121 | 80 | 5 | 0.0 | 4.0 | 0.00 | 0.00 | 0.00 | 52 | 1009.5 |
| 20260905180121 | 81 | 296 | 0.0 | 6.0 | 0.00 | 0.00 | 0.00 | 50 | 1009.5 |
| 20260905175121 | 82 | 275 | 0.0 | 4.0 | 0.00 | 0.00 | 0.00 | 50 | 1009.6 |
| 20260905173122 | 82 | 22 | 0.0 | 2.0 | 0.00 | 0.00 | 0.00 | 49 | 1009.6 |
| 20260905172121 | 82 | 296 | 1.0 | 2.0 | 0.00 | 0.00 | 0.00 | 52 | 1009.9 |
| 20260905171121 | 83 | 290 | 0.0 | 4.0 | 0.00 | 0.00 | 0.00 | 47 | 1009.9 |
| 20260905170121 | 84 | 299 | 0.0 | 3.0 | 0.00 | 0.00 | 0.00 | 47 | 1009.9 |
| 20260905165121 | 84 | 242 | 1.0 | 3.0 | 0.00 | 0.00 | 0.00 | 48 | 1010.0 |
| 20260905164121 | 83 | 253 | 0.0 | 11.0 | 0.00 | 0.00 | 0.00 | 50 | 1010.2 |
| 20260905163121 | 83 | 278 | 8.0 | 8.0 | 0.00 | 0.00 | 0.00 | 47 | 1010.2 |
| 20260905162121 | 83 | 282 | 0.0 | 3.0 | 0.00 | 0.00 | 0.00 | 50 | 1010.3 |
| 20260905161121 | 82 | 300 | 0.0 | 6.0 | 0.00 | 0.00 | 0.00 | 52 | 1010.5 |
| 20260905160121 | 82 | 288 | 0.0 | 8.0 | 0.00 | 0.00 | 0.00 | 50 | 1010.4 |
| 20260905153121 | 81 | 41 | 2.0 | 4.0 | 0.00 | 0.00 | 0.00 | 54 | 1010.5 |
| 20260905152121 | 80 | 70 | 1.0 | 6.0 | 0.00 | 0.00 | 0.00 | 52 | 1010.6 |
| 20260905151122 | 80 | 10 | 0.0 | 8.0 | 0.00 | 0.00 | 0.00 | 54 | 1010.7 |
| 20260905150122 | 80 | 327 | 1.0 | 8.0 | 0.00 | 0.00 | 0.00 | 55 | 1010.5 |
| 20260905145121 | 80 | 336 | 0.0 | 4.0 | 0.00 | 0.00 | 0.00 | 55 | 1010.3 |
| 20260905144121 | 80 | 23 | 0.0 | 4.0 | 0.00 | 0.00 | 0.00 | 57 | 1010.2 |
| 20260905143121 | 79 | 5 | 2.0 | 4.0 | 0.00 | 0.00 | 0.00 | 56 | 1010.3 |
| 20260905142121 | 78 | 30 | 2.0 | 8.0 | 0.00 | 0.00 | 0.00 | 58 | 1010.4 |
| 20260905141121 | 78 | 300 | 0.0 | 3.0 | 0.00 | 0.00 | 0.00 | 60 | 1010.4 |
| 20260905140122 | 78 | 237 | 0.0 | 2.0 | 0.00 | 0.00 | 0.00 | 64 | 1010.4 |
| 20260905135121 | 77 | 276 | 2.0 | 7.0 | 0.00 | 0.00 | 0.00 | 62 | 1010.4 |
| 20260905134121 | 76 | 220 | 0.0 | 3.0 | 0.00 | 0.00 | 0.00 | 67 | 1010.3 |
| 20260905133121 | 75 | 158 | 0.0 | 4.0 | 0.00 | 0.00 | 0.00 | 70 | 1010.2 |
| 20260905132121 | 74 | 342 | 0.0 | 5.0 | 0.00 | 0.00 | 0.00 | 72 | 1010.1 |
| 20260905130121 | 72 | 282 | 0.0 | 2.0 | 0.00 | 0.00 | 0.00 | 75 | 1010.1 |
| 20260905125122 | 71 | 269 | 0.0 | 1.0 | 0.00 | 0.00 | 0.00 | 77 | 1010.1 |
| 20260905124121 | 71 | 270 | 0.0 | 0.0 | 0.00 | 0.00 | 0.00 | 78 | 1010.2 |
| 20260905014139 | 78 | 267 | 0.0 | 0.0 | 0.00 | 0.01 | 0.01 | 78 | 1010.0 |
| 20260905013139 | 78 | 267 | 0.0 | 0.0 | 0.00 | 0.01 | 0.01 | 77 | 1009.9 |
| 20260905012138 | 78 | 267 | 0.0 | 0.0 | 0.00 | 0.01 | 0.01 | 77 | 1009.9 |
| 20260905011139 | 78 | 267 | 0.0 | 0.0 | 0.00 | 0.01 | 0.01 | 77 | 1010.0 |
| 20260905005139 | 79 | 267 | 0.0 | 0.0 | 0.00 | 0.01 | 0.01 | 76 | 1010.0 |
| 20260905004138 | 79 | 267 | 0.0 | 0.0 | 0.00 | 0.01 | 0.01 | 76 | 1009.7 |
| 20260905003138 | 79 | 267 | 0.0 | 0.0 | 0.00 | 0.01 | 0.01 | 75 | 1009.8 |
| 20260905002138 | 79 | 267 | 0.0 | 0.0 | 0.00 | 0.01 | 0.01 | 74 | 1009.7 |
| 20260905001138 | 80 | 267 | 0.0 | 0.0 | 0.00 | 0.01 | 0.01 | 73 | 1009.6 |
| 20260905000138 | 80 | 267 | 0.0 | 0.0 | 0.00 | 0.01 | 0.01 | 73 | 1009.4 |
| 20260904235138 | 80 | 267 | 0.0 | 0.0 | 0.00 | 0.01 | 0.01 | 72 | 1009.3 |
| 20260904234138 | 81 | 267 | 0.0 | 0.0 | 0.00 | 0.01 | 0.01 | 72 | 1009.3 |
| 20260904233138 | 81 | 267 | 0.0 | 0.0 | 0.00 | 0.01 | 0.01 | 72 | 1009.3 |
| 20260904231138 | 81 | 268 | 0.0 | 0.0 | 0.00 | 0.01 | 0.01 | 71 | 1009.3 |
| 20260904230138 | 82 | 268 | 0.0 | 0.0 | 0.00 | 0.01 | 0.01 | 70 | 1009.4 |
| 20260904225138 | 82 | 268 | 0.0 | 0.0 | 0.00 | 0.01 | 0.01 | 70 | 1009.3 |
| 20260904224138 | 82 | 268 | 0.0 | 0.0 | 0.00 | 0.01 | 0.01 | 69 | 1009.4 |
| 20260904223139 | 82 | 266 | 0.0 | 0.0 | 0.00 | 0.01 | 0.01 | 68 | 1009.7 |